Location: Cheznovice
(49.7782°N, 13.7834°E)
Time: 11:51:09
(UTC+00:00)

Daily predictions for brighter satellites

Satellite Brightness Start Highest point End
(mag) Time Altitude Azimuth Time Altitude Azimuth Time Altitude Azimuth
Exosat Rocket 4.1 18:16:18 10° NNW 18:21:47 70° ENE 18:29:10 10° SE
ERS-1 Rocket 3.7 18:19:40 10° SE 18:24:08 34° ENE 18:28:37 10° N
Cosmos 1943 Rocket 3.6 18:21:37 10° NNW 18:26:14 25° NE 18:30:49 10° E
Okean 1-7 3.0 18:22:20 10° N 18:26:29 84° W 18:30:34 10° S
Cosmos 1328 3.9 18:23:23 10° NNW 18:26:53 67° W 18:30:23 10° S
Cosmos 1862 Rocket 3.9 18:27:38 10° NNW 18:32:04 70° W 18:36:27 10° S
Cosmos 1707 Rocket 3.8 18:28:23 10° NNW 18:32:41 74° W 18:36:58 10° S
Cosmos 1441 Rocket 3.0 18:30:33 10° NNW 18:33:57 78° W 18:37:19 10° S
Cosmos 2154 Rocket 4.1 18:28:03 10° S 18:34:13 61° E 18:40:28 10° NNE
ATLAS 3B R/B 3.2 18:27:16 10° SW 18:34:58 84° NW 18:42:56 10° NE
USA 229 DEB 3.9 18:31:00 10° SW 18:37:03 71° NW 18:43:58 10° NE
USA 229 3.9 18:31:03 10° SW 18:37:07 71° NW 18:44:01 10° NE
Helios 1A Rocket 2.8 18:35:39 10° NNE 18:38:42 36° E 18:41:42 10° S
Aureole 1 Rocket 2.2 18:36:43 10° SSW 18:40:00 89° W 18:43:01 10° NNE
Cosmos 2278 4.1 18:34:31 10° SW 18:40:10 71° WNW 18:45:52 10° NNE
Cosmos 1844 Rocket 4.3 18:35:17 10° NW 18:40:17 35° WSW 18:45:16 10° S
Cosmos 2228 Rocket 3.2 18:38:01 10° NNW 18:42:33 81° W 18:46:59 10° S
Cosmos 2360 Rocket 2.2 18:39:08 10° SSW 18:44:46 86° ESE 18:50:28 10° NNE
Okean-O 4.0 18:43:16 11° ESE 18:46:28 23° ENE 18:49:56 10° N
BlueWalker 3 4.4 18:46:56 10° WSW 18:48:43 13° SW 18:50:29 10° SSW
Meteor 1-16 Rocket 4.5 18:43:36 10° S 18:49:21 55° E 18:55:05 10° NNE
Cosmos 2098 4.1 18:49:20 10° S 18:52:19 56° E 18:55:16 10° NNE
Cosmos 2184 Rocket 4.1 18:45:59 10° S 18:52:21 87° E 18:58:45 10° N
Cosmos 2322 Rocket 2.4 18:47:06 10° SSW 18:52:43 79° WNW 18:58:22 10° NNE
Cosmos 1666 Rocket 4.2 18:50:33 10° SSW 18:54:46 59° WNW 18:59:02 10° N
BREEZE-M DEB (TANK) 4.4 18:42:58 10° W 18:54:54 79° SSW 18:57:56 15° ESE
Cosmos 1633 Rocket 3.4 18:51:27 10° SSW 18:55:49 69° WNW 19:00:12 10° N
Cosmos 1340 Rocket 3.6 18:52:58 10° SSW 18:56:32 50° WNW 19:00:08 10° N
ADEOS 3.7 18:52:25 10° SE 18:57:30 56° ENE 19:02:36 10° N
Cosmos 1869 Rocket 4.4 18:54:10 10° SSE 18:57:55 29° E 19:01:43 10° NNE
Feng Yun 1-1 Rocket 4.2 18:53:18 10° SSE 18:58:54 79° ENE 19:04:24 10° NNW
BREEZE-M DEB (TANK) 2.5 18:58:00 10° SW 19:00:08 39° SSE 19:02:46 13° E
Terra 1.9 18:55:50 10° SSE 19:00:25 58° ENE 19:05:03 10° N
SL-16 R/B 3.5 18:55:25 10° SW 19:00:50 45° NW 19:06:17 10° NNE
ATLAS 5 CENTAUR R/B 3.8 19:00:40 10° WNW 19:02:34 15° NNW 19:04:36 10° NNE
MOS 1 4.3 18:57:03 10° SSE 19:02:40 75° ENE 19:08:20 10° NNW
CSL-04 Debris 4.4 18:57:45 10° S 19:03:05 72° WSW 19:08:29 10° NNW
CZ-4 R/B 1.5 19:01:34 10° S 19:05:22 70° WSW 19:09:09 10° NNW
Cosmos 2237 Rocket 3.9 19:05:49 13° E 19:05:49 13° E 19:08:07 10° ENE
Cosmos 1898 Rocket 3.5 19:00:32 10° SSW 19:05:47 90° SE 19:11:02 10° NNE
Resurs 01 Rocket 4.4 19:04:39 10° SW 19:07:42 18° W 19:10:47 10° NW
Cosmos 2341 Rocket 4.5 19:03:06 10° SSE 19:08:48 39° E 19:14:34 10° NNE
Cosmos 2322 4.3 19:03:50 10° S 19:08:56 35° ESE 19:14:04 10° NE
SL-08 R/B 3.8 19:04:37 10° NNE 19:09:15 40° E 19:13:51 10° SSE
Okean O Rocket 2.3 19:06:43 17° SE 19:09:33 38° ENE 19:13:35 10° N
IRS-1A Rocket 4.3 19:09:22 13° SSE 19:14:17 62° ENE 19:19:52 10° N
Cosmos 2333 4.5 19:09:51 10° SW 19:15:26 72° WNW 19:21:04 10° NNE
CZ-4B R/B 4.2 19:16:53 18° E 19:17:50 20° ENE 19:20:30 10° NNE
Cosmos 1680 Rocket 3.4 19:13:02 10° NNW 19:18:17 81° ENE 19:22:22 17° SSE
SPOT 5 4.1 19:16:22 10° SSW 19:20:51 40° W 19:25:09 10° NNW
Cosmos 2219 Rocket 2.3 19:15:40 10° SSW 19:21:15 82° WNW 19:26:53 10° NNE
Meteor 1-31 Rocket 4.2 19:22:38 10° SSW 19:25:50 32° W 19:29:03 10° NNW
Cosmos 1937 Rocket 3.6 19:22:03 10° SSW 19:27:20 82° WNW 19:32:41 10° NNE
SL-24 R/B - RUBIN 2 3.6 19:28:17 10° NW 19:32:41 78° SW 19:35:17 26° SSE
USA 234 3.5 19:26:57 10° ENE 19:33:30 74° NNW 19:40:02 10° WSW
USA 186 2.0 19:34:28 32° NNE 19:34:28 32° NNE 19:35:56 10° N
Cosmos 2369 Rocket 4.3 19:32:10 10° N 19:35:15 15° NNE 19:38:21 10° ENE
Cosmos 2112 Rocket 4.0 19:30:36 10° NNW 19:35:51 88° WSW 19:39:16 22° SSE
SL-8 Rocket 4.0 19:30:10 10° S 19:36:17 63° E 19:42:30 10° NNE
NOSS 2-3 (E) 4.3 19:33:10 10° NW 19:38:10 76° SW 19:42:20 23° SSE
COSMOS 2428 2.8 19:33:01 10° S 19:38:32 51° ESE 19:44:04 10° NE
NOSS 0 Rocket 4.4 19:33:54 10° S 19:39:32 37° ESE 19:45:11 10° NE
USA 238 DEB 4.2 19:32:37 10° NW 19:39:44 57° NE 19:44:50 23° ESE
USA 238 4.3 19:32:47 10° NW 19:39:54 57° NE 19:45:00 23° ESE
CZ-4B R/B 3.5 19:35:07 10° S 19:40:33 67° WSW 19:46:11 10° NNW
MetOp-B 4.5 19:35:41 10° S 19:40:58 65° WSW 19:46:20 10° NNW
NOSS 2-3 (C) 4.2 19:36:41 10° NW 19:41:38 89° SSW 19:45:27 26° SE
USA 245 4.1 19:40:43 32° ESE 19:41:54 40° ENE 19:46:14 10° N
Cosmos 1241 Rocket 4.4 19:35:48 10° NW 19:42:06 88° NE 19:45:53 26° SE
Cosmos 2278 Rocket 2.4 19:39:25 10° NNW 19:45:03 59° ENE 19:47:49 30° SE
SKYMED 3 4.4 19:41:36 10° N 19:45:30 77° WNW 19:49:21 10° SSW
Cosmos 2366 rocket 3.9 19:40:10 10° S 19:46:17 68° E 19:52:24 10° NNE
Ariane Rocket 3.7 19:46:49 29° ESE 19:48:33 38° ENE 19:53:11 10° N
NOSS 3-2 (C) 4.4 19:42:58 10° NW 19:50:10 63° SW 19:56:23 20° SSE
Cosmos 2333 Rocket 4.4 19:45:42 10° WSW 19:50:30 27° NW 19:55:20 10° NNE
USA 32 4.0 19:53:57 26° SSE 19:56:49 65° E 20:02:00 10° NNE
Spot 2 Rocket 3.5 19:53:55 25° S 19:56:55 81° WSW 20:01:59 10° NNW
Cosmos 1346 Rocket 4.3 19:54:55 10° NNE 19:57:18 20° ENE 19:57:18 20° ENE
BREEZE-M DEB (TANK) 2.2 19:55:02 10° W 19:57:42 82° S 19:59:33 34° ESE
CZ-2C R/B 3.4 20:00:39 28° NE 20:00:39 28° NE 20:02:37 10° N
Lacrosse 5 rocket 0.5 19:57:13 10° SW 20:00:25 89° NNW 20:00:41 74° NE
Cosmos 1809 Rocket 4.4 19:55:07 10° N 20:01:18 90° WSW 20:05:08 25° S
ARIANE 6 FM1 Upper Stage 4.1 19:57:58 10° WSW 20:01:50 38° NW 20:05:38 10° NE
Cosmos 1378 Rocket 3.8 19:58:16 10° N 20:02:36 51° ENE 20:03:21 45° ESE
ERS-1 Rocket 4.2 19:58:09 10° SSW 20:02:46 37° W 20:07:26 10° NNW
Cosmos 1943 Rocket 2.2 20:04:56 10° NNW 20:10:38 81° WSW 20:12:59 37° SSE
YAOGAN 11 4.1 20:07:01 10° NNE 20:11:15 77° WNW 20:13:55 22° SSW
Cosmos 2218 Rocket 3.9 20:06:05 13° S 20:11:41 88° W 20:17:53 10° N
Cosmos 614 Rocket 4.3 20:07:53 10° NNW 20:13:00 53° ENE 20:14:15 42° ESE
Meteor 1-11 4.1 20:08:55 10° N 20:14:31 80° ENE 20:16:34 41° SSE
Meteor 2-15 4.3 20:11:09 18° S 20:15:47 88° ESE 20:21:56 10° N
Meteor 2-15 Rocket 4.4 20:13:48 32° SSE 20:16:40 67° E 20:22:43 10° NNE
USA 59 Rocket 0.6 20:14:13 10° NNW 20:17:11 34° NE 20:17:17 34° NE
Cosmos 1733 Rocket 2.9 20:18:20 58° SSE 20:19:06 76° E 20:23:29 10° NNE
Cosmos 192 4.2 20:18:37 35° S 20:20:38 75° ESE 20:25:34 10° NNE
SeaSat 1 3.3 20:19:54 32° E 20:21:06 38° NE 20:25:37 10° NNW
CZ-4B R/B 3.3 20:20:21 50° SSE 20:21:38 84° ENE 20:26:28 10° NNW
IRS-1C Rocket 4.0 20:20:58 47° SE 20:22:28 74° ENE 20:27:44 10° NNW
Okean-O 3.4 20:20:35 28° SSW 20:22:29 46° W 20:26:44 10° NNW
NOSS 3-4 (A) 3.5 20:23:13 43° ESE 20:23:13 43° ESE 20:28:05 10° NE
NOSS 3-4 (C) 3.5 20:23:46 42° ESE 20:23:46 42° ESE 20:28:36 10° NE
Cosmos 1821 Rocket 3.9 20:22:24 26° S 20:26:09 87° E 20:32:31 10° N
ATLAS 3B R/B 4.4 20:19:38 10° W 20:26:48 37° NNW 20:34:02 10° NE
Cosmos 1048 Rocket 4.1 20:23:19 10° NNW 20:28:25 68° WSW 20:29:52 45° S
Cosmos 2239 Rocket 4.5 20:29:26 45° SSE 20:31:10 62° E 20:37:17 10° NNE
Timation 2 Rocket 4.0 20:27:50 10° NNW 20:34:06 76° WSW 20:36:19 43° SSE
NOSS 2-1 (E) 4.3 20:32:46 10° NNW 20:35:22 32° NNE 20:35:22 32° NNE
NOSS 2-1 (C) 4.2 20:34:26 10° NNW 20:36:58 35° NNE 20:36:58 35° NNE
Terra 4.0 20:34:54 10° SW 20:38:19 20° W 20:41:45 10° NW
Aureole 3 3.9 20:35:08 10° NNW 20:39:11 64° W 20:40:03 52° SSW
NOSS 2-1 (D) 4.0 20:40:05 10° NNW 20:42:32 41° N 20:42:32 41° N
Cosmos 468 4.4 20:39:22 10° NNW 20:44:37 85° WSW 20:45:23 66° S
Cosmos 2242 Rocket 4.3 20:41:04 10° NNW 20:45:25 48° W 20:46:21 40° SW
Okean O Rocket 3.3 20:43:57 20° SW 20:45:49 27° W 20:49:32 10° NW
SL-08 R/B 4.5 20:39:53 10° N 20:46:00 64° ENE 20:47:11 54° SE
Cosmos 1000 Rocket 4.4 20:41:15 10° N 20:47:28 87° E 20:49:04 53° SSE
Cosmos 2237 Rocket 2.0 20:47:31 56° S 20:48:41 74° ESE 20:54:24 10° NNE
Cosmos 1980 3.5 20:47:57 49° SSW 20:49:31 80° ESE 20:55:12 10° NNE
Cosmos 1025 Rocket 3.0 20:45:29 10° N 20:49:24 75° N 20:49:24 75° N
Cosmos 1125 Rocket 3.4 20:51:20 66° E 20:51:20 66° E 20:56:22 10° NNE
CZ-4B R/B 3.8 20:51:35 36° W 20:51:35 36° W 20:54:44 10° NNW
ASTEX 1 4.1 20:50:47 37° SW 20:52:14 49° W 20:57:01 10° NNW
Cosmos 2292 Rocket 3.8 20:47:43 10° N 20:53:35 84° W 20:54:03 73° SSW
Cosmos 1400 Rocket 3.8 21:03:02 39° NNW 21:03:02 39° NNW 21:05:39 10° N
SPOT 3 Rocket 4.4 21:02:10 37° SW 21:03:27 44° W 21:08:25 10° NNW
Cosmos 1975 Rocket 4.4 21:01:28 10° N 21:04:32 30° NE 21:04:32 30° NE
SL-08 R/B 4.3 21:11:04 62° S 21:12:12 89° W 21:18:22 10° N
Molniya-1 4.4 21:15:25 47° NE 21:15:25 47° NE 21:20:50 10° NE
USA 234 4.1 21:09:52 10° ENE 21:16:07 49° N 21:22:21 10° WNW
Cosmos 2369 Rocket 2.6 21:15:13 10° NNW 21:20:41 50° NE 21:20:57 49° ENE
Cosmos 1908 Rocket 4.3 21:22:14 50° N 21:22:14 50° N 21:25:30 10° N
Helios 1B rocket 4.1 21:23:49 26° N 21:23:49 26° N 21:25:29 10° N
COSMOS 2428 4.2 21:17:44 10° WSW 21:22:58 35° NW 21:28:14 10° NNE
Ariane Rocket 4.1 21:26:52 33° WSW 21:27:27 34° W 21:32:02 10° NNW
Cosmos 2278 Rocket 3.6 21:24:03 10° NW 21:28:45 27° WSW 21:29:39 26° WSW
USA 238 DEB 4.4 21:23:40 10° NW 21:30:47 50° WSW 21:32:16 45° SSW
Cosmos 2221 Rocket 4.5 21:26:38 10° NNW 21:30:11 46° WNW 21:30:11 46° WNW
USA 238 4.3 21:23:50 10° NW 21:30:57 50° WSW 21:32:26 45° SSW
Helios 1A 4.5 21:30:46 10° NNE 21:32:53 30° NNE 21:32:53 30° NNE
Cosmos 1656 Rocket 4.1 21:45:35 10° NW 21:50:17 51° W 21:50:17 51° W
Cosmos 1943 Rocket 4.4 21:50:31 10° WNW 21:53:26 14° W 21:54:29 14° WSW
SL-16 R/B 2.7 21:58:05 52° NE 21:58:05 52° NE 22:02:23 10° NNE
SJ 16-02 3.7 21:54:29 10° N 21:56:47 16° NE 21:56:47 16° NE
SeaSat 1 3.5 21:59:30 37° W 21:59:30 37° W 22:03:06 10° NW
CZ-2C R/B 4.1 22:02:52 27° ENE 22:03:07 27° ENE 22:07:40 10° N
USA 59 Rocket 2.6 22:02:38 10° WNW 22:02:49 11° WNW 22:02:49 11° WNW
BREEZE-M R/B 4.4 21:55:08 10° WSW 22:06:23 71° SSE 22:12:07 10° ENE
Cosmos 1447 Rocket 4.4 22:00:21 10° N 22:06:34 86° NW 22:06:34 86° NW
Cosmos 1140 Rocket 4.0 22:04:38 10° NNW 22:08:44 54° N 22:08:44 54° N
Cosmos 2346 Rocket 4.5 22:04:05 10° NNW 22:09:59 73° WNW 22:09:59 73° WNW
NOSS 3-4 (A) 4.2 22:10:28 24° W 22:13:28 45° NW 22:19:17 10° NE
NOSS 3-4 (C) 4.2 22:11:02 25° W 22:13:58 45° NW 22:19:49 10° NE
Cosmos 2285 Rocket 4.1 22:19:16 70° W 22:19:32 71° WNW 22:25:55 10° NNE
ALOS 2 4.1 22:29:40 35° NNW 22:29:40 35° NNW 22:32:15 10° NNW
NOSS 3-1 (C) 3.8 22:21:09 10° NW 22:28:03 89° SW 22:28:44 77° SE
ATLAS 5 CENTAUR R/B 3.7 22:26:46 10° NNW 22:29:34 19° NNE 22:29:34 19° NNE
Cosmos 1459 Rocket 4.3 22:33:28 58° ENE 22:33:28 58° ENE 22:39:05 10° NNE
Cosmos 1605 Rocket 4.4 22:32:45 51° W 22:32:56 52° WNW 22:38:54 10° N
Cosmos 2237 Rocket 4.1 22:29:12 13° W 22:33:19 26° NW 22:38:06 10° NNE
ARIANE 5 R/B 4.3 22:40:11 29° NW 22:40:11 29° NW 22:42:27 10° NNW
Cosmos 2297 4.5 22:33:09 10° NW 22:37:29 46° WNW 22:37:29 46° WNW
COSMOS 2455 3.2 22:39:21 10° NNW 22:45:16 58° NE 22:45:16 58° NE
Cosmos 44 4.5 22:51:59 42° NNE 22:51:59 42° NNE 22:55:32 10° NE
Cosmos 2173 Rocket 4.0 22:55:45 71° N 22:55:45 71° N 23:01:09 10° N
CZ-2C R/B 4.1 22:52:34 10° NNE 22:55:50 38° NE 22:55:50 38° NE
USA 234 3.8 22:52:13 10° E 22:58:34 55° NNE 23:04:55 10° WNW
Cosmos 2100 Rocket 4.0 23:00:25 73° NNW 23:00:25 73° NNW 23:06:00 10° N
Cosmos 2251 Rocket 4.3 22:59:05 10° NNW 23:03:27 48° NNE 23:03:27 48° NNE
Cosmos 2369 Rocket 3.7 22:59:35 10° NW 23:02:43 26° WNW 23:02:43 26° WNW
Cosmos 1656 4.4 23:03:58 10° NNW 23:08:53 46° NE 23:08:53 46° NE
NOSS 3-1 (A) 3.9 23:12:13 10° NW 23:19:12 90° SW 23:19:58 76° SE
Cosmos 1943 3.6 23:21:35 60° N 23:21:35 60° N 23:26:25 10° NNE
Cosmos 1697 Rocket 4.4 23:17:28 10° NNW 23:22:15 27° NE 23:24:53 19° E
SJ 16-02 3.4 23:31:33 10° NNW 23:33:16 24° NNW 23:33:16 24° NNW
ACS3 Solar Sail 2.8 23:35:00 10° NNE 23:40:25 35° E 23:40:25 35° E
SL-16 R/B 3.8 23:39:53 24° WNW 23:41:23 26° NW 23:46:08 10° NNE
CZ-2C R/B 3.4 23:44:18 47° NW 23:44:18 47° NW 23:48:28 10° NNW
Cosmos 1802 Rocket 4.2 23:43:35 60° WNW 23:43:35 60° WNW 23:49:37 10° N
Cosmos 1725 Rocket 4.2 23:48:08 60° WNW 23:48:08 60° WNW 23:54:10 10° N
Cosmos 1818 4.0 23:46:36 10° NW 23:51:37 59° NNE 23:51:37 59° NNE
